Location: Gniazdowice
(50.2124°N, 20.2673°E)
Time: 23:13:52
(UTC+00:00)

Cosmos 2322 Rocket - Pass Details

Date: 23 May 2024
Orbit: 832 x 850 km, 71.0° (Epoch: 22 June)

Event Time Altitude Azimuth Distance (km) Brightness Sun altitude
Rises 00:51:52 0° 329° (NNW) 3,401 5.7 -13.0°
Reaches altitude 10° 00:54:19 10° 327° (NNW) 2,465 4.9 -12.8°
Maximum altitude 00:59:57 71° 245° (WSW) 891 2.2 -12.3°
Drops below altitude 10° 01:05:34 10° 162° (SSE) 2,462 4.3 -11.8°
Sets 01:08:01 0° 161° (SSE) 3,395 5.0 -11.6°
